Gerona, Spain

5:12 AM CET on February 20, 2017 (GMT +0100)
Girona

Weather History for LEGE - January, 2014

Change the Weather History Date:

Wednesday, January 15, 2014

  Actual Average Record
Temperature  
Mean Temperature 43 °F -  
Max Temperature 56 °F 56 °F 65 °F (2015)
Min Temperature 30 °F 35 °F 25 °F (2017)
Degree Days  
Heating Degree Days 22    
Moisture  
Dew Point 38 °F    
Average Humidity 88    
Maximum Humidity 100    
Minimum Humidity 49    
Precipitation  
Precipitation 0.00 in 0.07 in - ()
Sea Level Pressure  
Sea Level Pressure 29.95 in    
Wind  
Wind Speed 2 mph ()    
Max Wind Speed 13 mph    
Max Gust Speed -    
Visibility 6.2 miles    
Events      
Averages and records for this station are not official NWS values.
T = Trace of Precipitation, MM = Missing Value Source: Averaged Metar Reports

Daily Weather History Graph

Daily Weather History Graph

Search for Another Location

Airport or City:

Trip Planner

Search our weather history database for the weather conditions in past years. The results will help you decide how hot, cold, wet, or windy it might be!

Date:

Astronomy

Jan. 15, 2014 Rise Set
Actual Time 8:14 AM CET 5:42 PM CET
Civil Twilight 7:43 AM CET 6:13 PM CET
Nautical Twilight 7:09 AM CET 6:47 PM CET
Astronomical Twilight 6:35 AM CET 7:21 PM CET
Moon 5:27 PM CET (1/15) 7:19 AM CET (1/15)
Length of Visible Light 10h 30m
Length of Day
9h 28m
Full, 100% of the Moon is Illuminated
Jan 15
Full
Jan 16
Full
Jan 24
Last Quarter
Jan 30
New
Feb 6
First Quarter

Hourly Weather History & Observations

Time (CET) Temp. Windchill Dew Point Humidity Pressure Visibility Wind Dir Wind Speed Gust Speed Precip Events Conditions
12:00 AM 35 °F - 35 °F 100% 29.95 in - Calm Calm - -  
12:00 AM 35.6 °F - 35.6 °F 100% 29.92 in 6.2 mi Calm Calm - N/A   Partly Cloudy
12:30 AM 35.6 °F - 33.8 °F 93% 29.95 in 6.2 mi Calm Calm - N/A   Partly Cloudy
1:00 AM 35 °F - 35 °F 99% 29.96 in 6 mi North 1.2 mph - -   Scattered Clouds
1:00 AM 35.6 °F - 35.6 °F 100% 29.95 in 6.2 mi Variable 1.2 mph - N/A   Partly Cloudy
1:30 AM 33.8 °F - 33.8 °F 100% 29.95 in 6.2 mi Calm Calm - N/A   Partly Cloudy
2:00 AM 34 °F - 34 °F 100% 29.96 in - Calm Calm - -  
2:00 AM 33.8 °F - 33.8 °F 100% 29.95 in 6.2 mi Calm Calm - N/A   Partly Cloudy
2:30 AM 33.8 °F - 33.8 °F 100% 29.95 in 6.2 mi Calm Calm - N/A   Partly Cloudy
3:00 AM 35 °F - 35 °F 99% 29.96 in - Calm Calm - -  
3:00 AM 35.6 °F - 35.6 °F 100% 29.95 in 6.2 mi Calm Calm - N/A   Partly Cloudy
3:30 AM 33.8 °F - 33.8 °F 100% 29.95 in 6.2 mi Calm Calm - N/A   Partly Cloudy
4:00 AM 33 °F - 33 °F 97% 29.97 in - Calm Calm - -  
4:00 AM 32.0 °F - 32.0 °F 100% 29.95 in 5.6 mi Calm Calm - N/A   Partly Cloudy
4:30 AM 35.6 °F - 35.6 °F 100% 29.95 in 5.6 mi Calm Calm - N/A   Partly Cloudy
5:00 AM 33 °F - 33 °F 97% 29.98 in - Calm Calm - -  
5:00 AM 33.8 °F - 32.0 °F 93% 29.95 in 5.6 mi Calm Calm - N/A   Partly Cloudy
5:30 AM 32.0 °F - 32.0 °F 100% 29.95 in 5.6 mi Calm Calm - N/A   Partly Cloudy
6:00 AM 31 °F - 31 °F 99% 29.97 in - NE 1.2 mph - -  
6:00 AM 30.2 °F - 30.2 °F 100% 29.95 in 5.6 mi NE 2.3 mph - N/A   Partly Cloudy
6:30 AM 32.0 °F - 32.0 °F 100% 29.95 in 5.6 mi Calm Calm - N/A   Partly Cloudy
7:00 AM 31 °F - 31 °F 100% 29.99 in 6 mi NNE 2.3 mph - -   Mist
7:00 AM 32.0 °F - 32.0 °F 100% 29.98 in 5.6 mi Variable 2.3 mph - N/A   Partly Cloudy
7:30 AM 32.0 °F - 32.0 °F 100% 29.98 in 5.0 mi Calm Calm - N/A   Partly Cloudy
8:00 AM 32 °F - 32 °F 100% 30.00 in - Calm Calm - -  
8:00 AM 32.0 °F - 32.0 °F 100% 29.98 in 6.2 mi Calm Calm - N/A   Partly Cloudy
8:30 AM 32.0 °F - 32.0 °F 100% 30.01 in 4.3 mi Calm Calm - N/A   Partly Cloudy
9:00 AM 35 °F - 35 °F 99% 30.02 in - West 2.3 mph - -  
9:00 AM 35.6 °F - 35.6 °F 100% 30.01 in 5.0 mi West 2.3 mph - N/A   Partly Cloudy
9:30 AM 35.6 °F - 35.6 °F 100% 30.01 in 6.2 mi Calm Calm - N/A   Partly Cloudy
10:00 AM 37 °F - 37 °F 99% 30.02 in 4 mi West 1.2 mph - -   Scattered Clouds
10:00 AM 37.4 °F - 37.4 °F 100% 30.01 in 3.7 mi West 2.3 mph - N/A   Partly Cloudy
10:30 AM 37.4 °F - 37.4 °F 100% 30.01 in 5.0 mi Calm Calm - N/A   Partly Cloudy
11:00 AM 40 °F - 40 °F 98% 30.01 in - Calm Calm - -  
11:00 AM 39.2 °F - 39.2 °F 100% 30.01 in 6.2 mi Calm Calm - N/A   Partly Cloudy
11:30 AM 41.0 °F - 41.0 °F 100% 30.01 in 6.2 mi SSW 2.3 mph - N/A   Partly Cloudy
12:00 PM 45 °F - 42 °F 85% 30.00 in - SSW 3.5 mph - -  
12:00 PM 44.6 °F - 41.0 °F 87% 30.01 in 6.2 mi Variable 2.3 mph - N/A   Partly Cloudy
12:30 PM 46.4 °F - 42.8 °F 87% 29.98 in 6.2 mi Variable 2.3 mph - N/A   Partly Cloudy
1:00 PM 48 °F - 42 °F 71% 29.98 in 22 mi South 2.3 mph - -   Overcast
1:00 PM 46.4 °F - 41.0 °F 81% 29.98 in 6.2 mi South 2.3 mph - N/A   Partly Cloudy
1:30 PM 50.0 °F - 41.0 °F 71% 29.98 in 6.2 mi Variable 1.2 mph - N/A   Partly Cloudy
2:00 PM 54 °F - 42 °F 54% 29.94 in - South 6.9 mph - -  
2:00 PM 51.8 °F - 41.0 °F 67% 29.95 in 6.2 mi South 4.6 mph - N/A   Partly Cloudy
2:30 PM 53.6 °F - 42.8 °F 67% 29.95 in 6.2 mi South 5.8 mph - N/A   Partly Cloudy
3:00 PM 55 °F - 43 °F 55% 29.93 in - South 4.6 mph - -  
3:00 PM 53.6 °F - 42.8 °F 67% 29.95 in 6.2 mi SSW 4.6 mph - N/A   Partly Cloudy
3:30 PM 53.6 °F - 42.8 °F 67% 29.95 in 6.2 mi South 3.5 mph - N/A   Partly Cloudy
4:00 PM 56 °F - 42 °F 49% 29.92 in 12 mi South 2.3 mph - -   Partly Cloudy
4:00 PM 53.6 °F - 41.0 °F 62% 29.92 in 6.2 mi Variable 1.2 mph - N/A   Partly Cloudy
4:30 PM 53.6 °F - 41.0 °F 62% 29.92 in 6.2 mi Variable 2.3 mph - N/A   Partly Cloudy
5:00 PM 52 °F - 44 °F 64% 29.91 in - South 5.8 mph - -  
5:00 PM 51.8 °F - 42.8 °F 71% 29.92 in 6.2 mi South 4.6 mph - N/A   Partly Cloudy
5:30 PM 50.0 °F - 42.8 °F 76% 29.92 in 6.2 mi South 8.1 mph - N/A   Partly Cloudy
6:00 PM 49 °F - 43 °F 72% 29.91 in - South 3.5 mph - -  
6:00 PM 48.2 °F - 42.8 °F 82% 29.92 in 6.2 mi South 3.5 mph - N/A   Partly Cloudy
6:30 PM 46.4 °F 44.3 °F 42.8 °F 87% 29.92 in 6.2 mi South 4.6 mph - N/A   Partly Cloudy
7:00 PM 46 °F - 41 °F 78%  in 12 mi South 3.5 mph - -   Partly Cloudy
7:00 PM 48.2 °F - 41.0 °F 76% 29.92 in 6.2 mi South 4.6 mph - N/A   Partly Cloudy
7:30 PM 46.4 °F 44.3 °F 42.8 °F 87% 29.89 in 6.2 mi South 4.6 mph - N/A   Partly Cloudy
8:00 PM 46 °F - 42 °F 80% 29.89 in - SW 5.8 mph - -  
8:00 PM 46.4 °F 43.5 °F 41.0 °F 81% 29.89 in 6.2 mi SW 5.8 mph - N/A   Partly Cloudy
8:30 PM 46.4 °F 45.2 °F 41.0 °F 81% 29.89 in 6.2 mi SW 3.5 mph - N/A   Partly Cloudy
9:00 PM 45 °F - 41 °F 82% 29.89 in - SW 4.6 mph - -  
9:00 PM 44.6 °F 43.1 °F 41.0 °F 87% 29.89 in 6.2 mi SW 3.5 mph - N/A   Partly Cloudy
9:30 PM 44.6 °F 41.4 °F 41.0 °F 87% 29.86 in 6.2 mi SW 5.8 mph - N/A   Partly Cloudy
10:00 PM 46 °F - 42 °F 83% 29.86 in 9 mi SSW 9.2 mph - -   Scattered Clouds
10:00 PM 46.4 °F 42.4 °F 41.0 °F 81% 29.86 in 6.2 mi SSW 8.1 mph - N/A   Partly Cloudy
10:30 PM 48.2 °F - 44.6 °F 87% 29.86 in 6.2 mi South 12.7 mph - N/A   Partly Cloudy
11:00 PM 48 °F - 45 °F 84% 29.83 in - South 9.2 mph - -  
11:00 PM 48.2 °F - 44.6 °F 87% 29.83 in 6.2 mi South 10.4 mph - N/A   Partly Cloudy
11:30 PM 48.2 °F - 42.8 °F 82% 29.83 in 6.2 mi Variable 1.2 mph - N/A   Scattered Clouds